Regional Weather Roundup
Issued by NWS

Home | Current Version | Previous Version | Graphics & Text | Print | Product List | Glossary On
Versions: 1 2 3 4 5 6 7 8 9 10 11 12 13 14 15 16 17 18 19 20 21 22 23 24 25 26 27 28 29 30 31 32 33 34 35 36 37 38 39 40 41 42 43 44 45 46 47 48 49 50
000
ASUS43 KBIS 241731
RWRND
NORTH DAKOTA REGIONAL WEATHER ROUNDUP
NATIONAL WEATHER SERVICE EASTERN NORTH DAKOTA/GRAND FORKS ND
1200 PM CDT SAT JUN 24 2017

  NOTE: "FAIR" INDICATES FEW OR NO CLOUDS BELOW 12,000 FEET WITH NO
  SIGNIFICANT WEATHER AND/OR OBSTRUCTIONS TO VISIBILITY.

NDZ001>003-009>011-017-241800-
...NORTHWEST NORTH DAKOTA...

CITY           SKY/WX    TMP DP  RH WIND       PRES   REMARKS
WILLISTON      FAIR      62  35  36 N23G30    30.29R
MINOT          CLOUDY    56  43  61 NW22G33   30.20S
MINOT AFB      CLOUDY    54  43  65 NW22G28   30.19R
$$

NDZ018>021-031>035-040>046-241800-
...SOUTHWEST NORTH DAKOTA...

CITY           SKY/WX    TMP DP  RH WIND       PRES   REMARKS
BISMARCK       FAIR      59  38  45 NW18G30   30.20S
DICKINSON      FAIR      59  30  33 N26G37    30.24R
GARRISON         N/A     54  40  59 N21G29    30.21R
HETTINGER      FAIR      63  32  31 NW22G32   30.26S
$$

NDZ004>008-012>016-024-026-027-054-241800-
...NORTHEAST NORTH DAKOTA...

CITY           SKY/WX    TMP DP  RH WIND       PRES   REMARKS
GRAND FORKS    LGT RAIN  55  49  80 NW15G25   30.02R
GRAND FORKS AF LGT RAIN  54  50  87 NW15G24   30.04R
DEVILS LAKE    CLOUDY    52  45  77 NW22G31   30.10R
$$

NDZ022-023-025-028>030-036>039-047>053-241800-
...SOUTHEAST NORTH DAKOTA...

CITY           SKY/WX    TMP DP  RH WIND       PRES   REMARKS
JAMESTOWN      CLOUDY    56  41  57 NW21G31   30.11R
FARGO          CLOUDY    57  46  66 NW14      30.04R
WAHPETON       PTSUNNY   55  45  67 N12       30.06R
$$




USA.gov is the U.S. government's official web portal to all federal, state and local government web resources and services.